owner,sensor,date,latitude,longitude,vertical_datum,sea_water_temperature,qcFlag 
TCOON,ioos:station:TCOON:009:1,2007-12-01T21:00:00Z,27.8398,-97.0727,0.0,30.1,11111222 
TCOON,ioos:station:TCOON:009:1,2007-12-01T22:00:00Z,27.8398,-97.0727,0.0,30.2,11111222 
TCOON,ioos:station:TCOON:009:1,2007-12-01T23:00:00Z,27.8398,-97.0727,0.0,30.2,11111222 
TCOON,ioos:station:TCOON:009:1,2007-12-02T00:00:00Z,27.8398,-97.0727,0.0,30.2,11111222 
TCOON,ioos:station:TCOON:009:1,2007-12-02T01:00:00Z,27.8398,-97.0727,0.0,30.2,11111222 
TCOON,ioos:station:TCOON:009:1,2007-12-02T02:00:00Z,27.8398,-97.0727,0.0,30.0,11111222 
TCOON,ioos:station:TCOON:009:1,2007-12-02T03:00:00Z,27.8398,-97.0727,0.0,29.9,11111222 
TCOON,ioos:station:TCOON:009:1,2007-12-02T04:00:00Z,27.8398,-97.0727,0.0,29.8,11111222 
TCOON,ioos:station:TCOON:009:1,2007-12-02T05:00:00Z,27.8398,-97.0727,0.0,29.7,11111222 
TCOON,ioos:station:TCOON:009:1,2007-12-02T06:00:00Z,27.8398,-97.0727,0.0,29.6,11111222 
TCOON,ioos:station:TCOON:009:1,2007-12-02T07:00:00Z,27.8398,-97.0727,0.0,29.4,11111222 
TCOON,ioos:station:TCOON:009:1,2007-12-02T08:00:00Z,27.8398,-97.0727,0.0,29.4,11111222 
TCOON,ioos:station:TCOON:009:1,2007-12-02T09:00:00Z,27.8398,-97.0727,0.0,29.4,11111222 
TCOON,ioos:station:TCOON:009:1,2007-12-02T10:00:00Z,27.8398,-97.0727,0.0,29.4,11111222 
TCOON,ioos:station:TCOON:009:1,2007-12-02T11:00:00Z,27.8398,-97.0727,0.0,29.4,11111222 
TCOON,ioos:station:TCOON:009:1,2007-12-02T12:00:00Z,27.8398,-97.0727,0.0,29.5,11111222 
TCOON,ioos:station:TCOON:009:1,2007-12-02T13:00:00Z,27.8398,-97.0727,0.0,29.5,11111222 
TCOON,ioos:station:TCOON:009:1,2007-12-02T14:00:00Z,27.8398,-97.0727,0.0,29.8,11111222 
TCOON,ioos:station:TCOON:009:1,2007-12-02T15:00:00Z,27.8398,-97.0727,0.0,30.0,11111222 
TCOON,ioos:station:TCOON:009:1,2007-12-02T16:00:00Z,27.8398,-97.0727,0.0,30.2,11111222 
TCOON,ioos:station:TCOON:009:1,2007-12-02T17:00:00Z,27.8398,-97.0727,0.0,30.3,11111222 
TCOON,ioos:station:TCOON:009:1,2007-12-02T18:00:00Z,27.8398,-97.0727,0.0,30.3,11111222 
TCOON,ioos:station:TCOON:009:1,2007-12-02T19:00:00Z,27.8398,-97.0727,0.0,30.4,11111222 
TCOON,ioos:station:TCOON:009:1,2007-12-02T20:00:00Z,27.8398,-97.0727,0.0,30.5,11111222 
TCOON,ioos:station:TCOON:009:1,2007-12-02T21:00:00Z,27.8398,-97.0727,0.0,30.7,11111222 
TCOON,ioos:station:TCOON:009:1,2007-12-02T22:00:00Z,27.8398,-97.0727,0.0,30.8,11111222 
TCOON,ioos:station:TCOON:009:1,2007-12-02T23:00:00Z,27.8398,-97.0727,0.0,30.9,11111222 
TCOON,ioos:station:TCOON:009:1,2007-12-03T00:00:00Z,27.8398,-97.0727,0.0,31.0,11111222 
TCOON,ioos:station:TCOON:009:1,2007-12-03T01:00:00Z,27.8398,-97.0727,0.0,31.0,11111222 
TCOON,ioos:station:TCOON:009:1,2007-12-03T02:00:00Z,27.8398,-97.0727,0.0,31.0,11111222 
TCOON,ioos:station:TCOON:009:1,2007-12-03T03:00:00Z,27.8398,-97.0727,0.0,30.9,11111222 
TCOON,ioos:station:TCOON:009:1,2007-12-03T04:00:00Z,27.8398,-97.0727,0.0,30.9,11111222 
TCOON,ioos:station:TCOON:009:1,2007-12-03T05:00:00Z,27.8398,-97.0727,0.0,30.9,11111222 
TCOON,ioos:station:TCOON:009:1,2007-12-03T06:00:00Z,27.8398,-97.0727,0.0,30.8,11111222 
TCOON,ioos:station:TCOON:009:1,2007-12-03T07:00:00Z,27.8398,-97.0727,0.0,30.9,11111222 
TCOON,ioos:station:TCOON:009:1,2007-12-03T08:00:00Z,27.8398,-97.0727,0.0,30.8,11111222 
TCOON,ioos:station:TCOON:009:1,2007-12-03T09:00:00Z,27.8398,-97.0727,0.0,30.6,11111222 
TCOON,ioos:station:TCOON:009:1,2007-12-03T10:00:00Z,27.8398,-97.0727,0.0,30.5,11111222 
TCOON,ioos:station:TCOON:009:1,2007-12-03T11:00:00Z,27.8398,-97.0727,0.0,30.4,11111222 
TCOON,ioos:station:TCOON:009:1,2007-12-03T12:00:00Z,27.8398,-97.0727,0.0,30.5,11111222 
TCOON,ioos:station:TCOON:009:1,2007-12-03T13:00:00Z,27.8398,-97.0727,0.0,30.4,11111222 
TCOON,ioos:station:TCOON:009:1,2007-12-03T14:00:00Z,27.8398,-97.0727,0.0,30.0,11111222 
TCOON,ioos:station:TCOON:009:1,2007-12-03T16:00:00Z,27.8398,-97.0727,0.0,29.2,11111222 
TCOON,ioos:station:TCOON:009:1,2007-12-08T23:00:00Z,27.8398,-97.0727,0.0,19.5,11111222 
TCOON,ioos:station:TCOON:009:1,2007-12-09T00:00:00Z,27.8398,-97.0727,0.0,19.5,11111222 
TCOON,ioos:station:TCOON:009:1,2007-12-09T01:00:00Z,27.8398,-97.0727,0.0,19.6,11111222 
TCOON,ioos:station:TCOON:009:1,2007-12-09T02:00:00Z,27.8398,-97.0727,0.0,19.6,11111222 
TCOON,ioos:station:TCOON:009:1,2007-12-09T03:00:00Z,27.8398,-97.0727,0.0,19.6,11111222 
TCOON,ioos:station:TCOON:009:1,2007-12-09T04:00:00Z,27.8398,-97.0727,0.0,19.6,11111222 
TCOON,ioos:station:TCOON:009:1,2007-12-09T05:00:00Z,27.8398,-97.0727,0.0,19.6,11111222 
TCOON,ioos:station:TCOON:009:1,2007-12-09T06:00:00Z,27.8398,-97.0727,0.0,19.5,11111222 
TCOON,ioos:station:TCOON:009:1,2007-12-09T07:00:00Z,27.8398,-97.0727,0.0,19.5,11111222 
TCOON,ioos:station:TCOON:009:1,2007-12-09T08:00:00Z,27.8398,-97.0727,0.0,19.5,11111222 
TCOON,ioos:station:TCOON:009:1,2007-12-09T09:00:00Z,27.8398,-97.0727,0.0,19.5,11111222 
TCOON,ioos:station:TCOON:009:1,2007-12-09T10:00:00Z,27.8398,-97.0727,0.0,19.5,11111222 
TCOON,ioos:station:TCOON:009:1,2007-12-09T11:00:00Z,27.8398,-97.0727,0.0,19.6,11111222 
TCOON,ioos:station:TCOON:009:1,2007-12-09T12:00:00Z,27.8398,-97.0727,0.0,19.7,11111222 
TCOON,ioos:station:TCOON:009:1,2007-12-09T13:00:00Z,27.8398,-97.0727,0.0,19.9,11111222 
TCOON,ioos:station:TCOON:009:1,2007-12-09T14:00:00Z,27.8398,-97.0727,0.0,19.9,11111222 
TCOON,ioos:station:TCOON:009:1,2007-12-09T15:00:00Z,27.8398,-97.0727,0.0,19.9,11111222 
TCOON,ioos:station:TCOON:009:1,2007-12-09T16:00:00Z,27.8398,-97.0727,0.0,20.1,11111222 
TCOON,ioos:station:TCOON:009:1,2007-12-09T17:00:00Z,27.8398,-97.0727,0.0,20.2,11111222 
TCOON,ioos:station:TCOON:009:1,2007-12-09T18:00:00Z,27.8398,-97.0727,0.0,20.3,11111222 
TCOON,ioos:station:TCOON:009:1,2007-12-09T19:00:00Z,27.8398,-97.0727,0.0,20.3,11111222 
TCOON,ioos:station:TCOON:009:1,2007-12-09T20:00:00Z,27.8398,-97.0727,0.0,20.4,11111222 
TCOON,ioos:station:TCOON:009:1,2007-12-09T21:00:00Z,27.8398,-97.0727,0.0,20.5,11111222 
TCOON,ioos:station:TCOON:009:1,2007-12-09T22:00:00Z,27.8398,-97.0727,0.0,20.4,11111222 
TCOON,ioos:station:TCOON:009:1,2007-12-09T23:00:00Z,27.8398,-97.0727,0.0,20.1,11111222 
TCOON,ioos:station:TCOON:009:1,2007-12-10T00:00:00Z,27.8398,-97.0727,0.0,20.0,11111222 
TCOON,ioos:station:TCOON:009:1,2007-12-10T01:00:00Z,27.8398,-97.0727,0.0,19.9,11111222 
TCOON,ioos:station:TCOON:009:1,2007-12-10T02:00:00Z,27.8398,-97.0727,0.0,19.9,11111222 
TCOON,ioos:station:TCOON:009:1,2007-12-10T03:00:00Z,27.8398,-97.0727,0.0,19.9,11111222 
TCOON,ioos:station:TCOON:009:1,2007-12-10T04:00:00Z,27.8398,-97.0727,0.0,19.9,11111222 
TCOON,ioos:station:TCOON:009:1,2007-12-10T05:00:00Z,27.8398,-97.0727,0.0,20.0,11111222 
TCOON,ioos:station:TCOON:009:1,2007-12-10T06:00:00Z,27.8398,-97.0727,0.0,20.0,11111222 
TCOON,ioos:station:TCOON:009:1,2007-12-10T07:00:00Z,27.8398,-97.0727,0.0,20.0,11111222 
TCOON,ioos:station:TCOON:009:1,2007-12-10T08:00:00Z,27.8398,-97.0727,0.0,20.0,11111222 
TCOON,ioos:station:TCOON:009:1,2007-12-10T10:00:00Z,27.8398,-97.0727,0.0,20.0,11111222 
TCOON,ioos:station:TCOON:009:1,2007-12-10T11:00:00Z,27.8398,-97.0727,0.0,20.0,11111222 
TCOON,ioos:station:TCOON:009:1,2007-12-10T12:00:00Z,27.8398,-97.0727,0.0,20.0,11111222 
TCOON,ioos:station:TCOON:009:1,2007-12-10T13:00:00Z,27.8398,-97.0727,0.0,20.2,11111222 
TCOON,ioos:station:TCOON:009:1,2007-12-10T14:00:00Z,27.8398,-97.0727,0.0,20.4,11111222 
TCOON,ioos:station:TCOON:009:1,2007-12-10T15:00:00Z,27.8398,-97.0727,0.0,20.5,11111222 
TCOON,ioos:station:TCOON:009:1,2007-12-10T16:00:00Z,27.8398,-97.0727,0.0,20.6,11111222 
TCOON,ioos:station:TCOON:009:1,2007-12-10T17:00:00Z,27.8398,-97.0727,0.0,20.8,11111222 
TCOON,ioos:station:TCOON:009:1,2007-12-10T18:00:00Z,27.8398,-97.0727,0.0,20.9,11111222 
TCOON,ioos:station:TCOON:009:1,2007-12-10T19:00:00Z,27.8398,-97.0727,0.0,20.9,11111222 
TCOON,ioos:station:TCOON:009:1,2007-12-10T20:00:00Z,27.8398,-97.0727,0.0,21.0,11111222 
TCOON,ioos:station:TCOON:009:1,2007-12-10T21:00:00Z,27.8398,-97.0727,0.0,21.0,11111222 
TCOON,ioos:station:TCOON:009:1,2007-12-10T22:00:00Z,27.8398,-97.0727,0.0,21.1,11111222 
TCOON,ioos:station:TCOON:009:1,2007-12-10T23:00:00Z,27.8398,-97.0727,0.0,20.9,11111222 
TCOON,ioos:station:TCOON:009:1,2007-12-11T00:00:00Z,27.8398,-97.0727,0.0,20.7,11111222 
TCOON,ioos:station:TCOON:009:1,2007-12-11T01:00:00Z,27.8398,-97.0727,0.0,20.7,11111222 
TCOON,ioos:station:TCOON:009:1,2007-12-11T02:00:00Z,27.8398,-97.0727,0.0,20.6,11111222 
TCOON,ioos:station:TCOON:009:1,2007-12-11T03:00:00Z,27.8398,-97.0727,0.0,20.5,11111222 
TCOON,ioos:station:TCOON:009:1,2007-12-11T04:00:00Z,27.8398,-97.0727,0.0,20.4,11111222 
TCOON,ioos:station:TCOON:009:1,2007-12-11T05:00:00Z,27.8398,-97.0727,0.0,20.4,11111222 
TCOON,ioos:station:TCOON:009:1,2007-12-11T06:00:00Z,27.8398,-97.0727,0.0,20.3,11111222 
TCOON,ioos:station:TCOON:009:1,2007-12-11T07:00:00Z,27.8398,-97.0727,0.0,20.3,11111222 
TCOON,ioos:station:TCOON:009:1,2007-12-11T08:00:00Z,27.8398,-97.0727,0.0,20.2,11111222 
TCOON,ioos:station:TCOON:009:1,2007-12-11T09:00:00Z,27.8398,-97.0727,0.0,20.2,11111222 
TCOON,ioos:station:TCOON:009:1,2007-12-11T10:00:00Z,27.8398,-97.0727,0.0,20.2,11111222 
TCOON,ioos:station:TCOON:009:1,2007-12-11T11:00:00Z,27.8398,-97.0727,0.0,20.3,11111222 
TCOON,ioos:station:TCOON:009:1,2007-12-11T12:00:00Z,27.8398,-97.0727,0.0,20.3,11111222 
TCOON,ioos:station:TCOON:009:1,2007-12-11T13:00:00Z,27.8398,-97.0727,0.0,20.3,11111222 
TCOON,ioos:station:TCOON:009:1,2007-12-11T14:00:00Z,27.8398,-97.0727,0.0,20.4,11111222 
TCOON,ioos:station:TCOON:009:1,2007-12-11T15:00:00Z,27.8398,-97.0727,0.0,20.4,11111222 
TCOON,ioos:station:TCOON:009:1,2007-12-11T16:00:00Z,27.8398,-97.0727,0.0,20.5,11111222 
TCOON,ioos:station:TCOON:009:1,2007-12-11T17:00:00Z,27.8398,-97.0727,0.0,20.7,11111222 
TCOON,ioos:station:TCOON:009:1,2007-12-11T18:00:00Z,27.8398,-97.0727,0.0,21.0,11111222 
TCOON,ioos:station:TCOON:009:1,2007-12-11T19:00:00Z,27.8398,-97.0727,0.0,21.2,11111222 
TCOON,ioos:station:TCOON:009:1,2007-12-11T20:00:00Z,27.8398,-97.0727,0.0,21.3,11111222 
TCOON,ioos:station:TCOON:009:1,2007-12-11T21:00:00Z,27.8398,-97.0727,0.0,21.4,11111222 
TCOON,ioos:station:TCOON:009:1,2007-12-11T22:00:00Z,27.8398,-97.0727,0.0,21.3,11111222 
TCOON,ioos:station:TCOON:009:1,2007-12-11T23:00:00Z,27.8398,-97.0727,0.0,21.2,11111222 
TCOON,ioos:station:TCOON:009:1,2007-12-12T00:00:00Z,27.8398,-97.0727,0.0,21.0,11111222 
TCOON,ioos:station:TCOON:009:1,2007-12-12T01:00:00Z,27.8398,-97.0727,0.0,20.8,11111222 
TCOON,ioos:station:TCOON:009:1,2007-12-12T02:00:00Z,27.8398,-97.0727,0.0,20.7,11111222 
TCOON,ioos:station:TCOON:009:1,2007-12-12T03:00:00Z,27.8398,-97.0727,0.0,20.7,11111222 
TCOON,ioos:station:TCOON:009:1,2007-12-12T04:00:00Z,27.8398,-97.0727,0.0,20.6,11111222 
TCOON,ioos:station:TCOON:009:1,2007-12-12T05:00:00Z,27.8398,-97.0727,0.0,20.6,11111222 
TCOON,ioos:station:TCOON:009:1,2007-12-12T06:00:00Z,27.8398,-97.0727,0.0,20.6,11111222 
TCOON,ioos:station:TCOON:009:1,2007-12-12T07:00:00Z,27.8398,-97.0727,0.0,20.6,11111222 
TCOON,ioos:station:TCOON:009:1,2007-12-12T08:00:00Z,27.8398,-97.0727,0.0,20.5,11111222 
TCOON,ioos:station:TCOON:009:1,2007-12-12T09:00:00Z,27.8398,-97.0727,0.0,20.5,11111222 
TCOON,ioos:station:TCOON:009:1,2007-12-12T10:00:00Z,27.8398,-97.0727,0.0,20.5,11111222 
TCOON,ioos:station:TCOON:009:1,2007-12-12T11:00:00Z,27.8398,-97.0727,0.0,20.5,11111222 
TCOON,ioos:station:TCOON:009:1,2007-12-12T12:00:00Z,27.8398,-97.0727,0.0,20.5,11111222 
TCOON,ioos:station:TCOON:009:1,2007-12-12T13:00:00Z,27.8398,-97.0727,0.0,20.6,11111222 
TCOON,ioos:station:TCOON:009:1,2007-12-12T14:00:00Z,27.8398,-97.0727,0.0,20.9,11111222 
TCOON,ioos:station:TCOON:009:1,2007-12-12T15:00:00Z,27.8398,-97.0727,0.0,21.0,11111222 
TCOON,ioos:station:TCOON:009:1,2007-12-12T17:00:00Z,27.8398,-97.0727,0.0,21.5,11111222 
TCOON,ioos:station:TCOON:009:1,2007-12-12T18:00:00Z,27.8398,-97.0727,0.0,21.7,11111222 
TCOON,ioos:station:TCOON:009:1,2007-12-12T19:00:00Z,27.8398,-97.0727,0.0,21.9,11111222 
TCOON,ioos:station:TCOON:009:1,2007-12-12T20:00:00Z,27.8398,-97.0727,0.0,21.9,11111222 
TCOON,ioos:station:TCOON:009:1,2007-12-12T21:00:00Z,27.8398,-97.0727,0.0,21.9,11111222 
TCOON,ioos:station:TCOON:009:1,2007-12-12T22:00:00Z,27.8398,-97.0727,0.0,21.8,11111222 
TCOON,ioos:station:TCOON:009:1,2007-12-12T23:00:00Z,27.8398,-97.0727,0.0,21.9,11111222 
TCOON,ioos:station:TCOON:009:1,2007-12-13T00:00:00Z,27.8398,-97.0727,0.0,21.9,11111222 
TCOON,ioos:station:TCOON:009:1,2007-12-13T01:00:00Z,27.8398,-97.0727,0.0,21.8,11111222 
TCOON,ioos:station:TCOON:009:1,2007-12-13T02:00:00Z,27.8398,-97.0727,0.0,21.5,11111222 
TCOON,ioos:station:TCOON:009:1,2007-12-13T03:00:00Z,27.8398,-97.0727,0.0,21.2,11111222 
TCOON,ioos:station:TCOON:009:1,2007-12-13T04:00:00Z,27.8398,-97.0727,0.0,21.0,11111222 
TCOON,ioos:station:TCOON:009:1,2007-12-13T05:00:00Z,27.8398,-97.0727,0.0,20.8,11111222 
TCOON,ioos:station:TCOON:009:1,2007-12-13T06:00:00Z,27.8398,-97.0727,0.0,20.6,11111222 
TCOON,ioos:station:TCOON:009:1,2007-12-13T07:00:00Z,27.8398,-97.0727,0.0,20.5,11111222 
TCOON,ioos:station:TCOON:009:1,2007-12-13T08:00:00Z,27.8398,-97.0727,0.0,20.5,11111222 
TCOON,ioos:station:TCOON:009:1,2007-12-13T09:00:00Z,27.8398,-97.0727,0.0,20.3,11111222 
TCOON,ioos:station:TCOON:009:1,2007-12-13T10:00:00Z,27.8398,-97.0727,0.0,19.9,11111222 
TCOON,ioos:station:TCOON:009:1,2007-12-13T11:00:00Z,27.8398,-97.0727,0.0,19.7,11111222 
TCOON,ioos:station:TCOON:009:1,2007-12-13T12:00:00Z,27.8398,-97.0727,0.0,19.6,11111222 
TCOON,ioos:station:TCOON:009:1,2007-12-13T13:00:00Z,27.8398,-97.0727,0.0,19.5,11111222 
TCOON,ioos:station:TCOON:009:1,2007-12-13T14:00:00Z,27.8398,-97.0727,0.0,19.5,11111222 
TCOON,ioos:station:TCOON:009:1,2007-12-13T15:00:00Z,27.8398,-97.0727,0.0,19.5,11111222 
TCOON,ioos:station:TCOON:009:1,2007-12-13T16:00:00Z,27.8398,-97.0727,0.0,19.4,11111222 
TCOON,ioos:station:TCOON:009:1,2007-12-13T17:00:00Z,27.8398,-97.0727,0.0,19.3,11111222 
TCOON,ioos:station:TCOON:009:1,2007-12-13T18:00:00Z,27.8398,-97.0727,0.0,19.3,11111222 
TCOON,ioos:station:TCOON:009:1,2007-12-13T19:00:00Z,27.8398,-97.0727,0.0,19.2,11111222 
TCOON,ioos:station:TCOON:009:1,2007-12-13T20:00:00Z,27.8398,-97.0727,0.0,19.4,11111222 
TCOON,ioos:station:TCOON:009:1,2007-12-13T21:00:00Z,27.8398,-97.0727,0.0,19.4,11111222 
TCOON,ioos:station:TCOON:009:1,2007-12-13T22:00:00Z,27.8398,-97.0727,0.0,19.5,11111222 
TCOON,ioos:station:TCOON:009:1,2007-12-13T23:00:00Z,27.8398,-97.0727,0.0,19.4,11111222 
TCOON,ioos:station:TCOON:009:1,2007-12-14T00:00:00Z,27.8398,-97.0727,0.0,19.4,11111222 
TCOON,ioos:station:TCOON:009:1,2007-12-14T01:00:00Z,27.8398,-97.0727,0.0,19.4,11111222 
TCOON,ioos:station:TCOON:009:1,2007-12-14T02:00:00Z,27.8398,-97.0727,0.0,19.4,11111222 
TCOON,ioos:station:TCOON:009:1,2007-12-14T03:00:00Z,27.8398,-97.0727,0.0,19.4,11111222 
TCOON,ioos:station:TCOON:009:1,2007-12-14T04:00:00Z,27.8398,-97.0727,0.0,19.4,11111222 
TCOON,ioos:station:TCOON:009:1,2007-12-14T05:00:00Z,27.8398,-97.0727,0.0,19.3,11111222 
TCOON,ioos:station:TCOON:009:1,2007-12-14T06:00:00Z,27.8398,-97.0727,0.0,19.3,11111222 
TCOON,ioos:station:TCOON:009:1,2007-12-14T07:00:00Z,27.8398,-97.0727,0.0,19.2,11111222 
TCOON,ioos:station:TCOON:009:1,2007-12-14T08:00:00Z,27.8398,-97.0727,0.0,19.2,11111222 
TCOON,ioos:station:TCOON:009:1,2007-12-14T09:00:00Z,27.8398,-97.0727,0.0,19.1,11111222 
TCOON,ioos:station:TCOON:009:1,2007-12-14T10:00:00Z,27.8398,-97.0727,0.0,19.1,11111222 
TCOON,ioos:station:TCOON:009:1,2007-12-14T11:00:00Z,27.8398,-97.0727,0.0,19.1,11111222 
TCOON,ioos:station:TCOON:009:1,2007-12-14T12:00:00Z,27.8398,-97.0727,0.0,19.0,11111222 
TCOON,ioos:station:TCOON:009:1,2007-12-14T13:00:00Z,27.8398,-97.0727,0.0,19.0,11111222 
TCOON,ioos:station:TCOON:009:1,2007-12-14T14:00:00Z,27.8398,-97.0727,0.0,18.9,11111222 
TCOON,ioos:station:TCOON:009:1,2007-12-14T15:00:00Z,27.8398,-97.0727,0.0,18.9,11111222 
TCOON,ioos:station:TCOON:009:1,2007-12-14T16:00:00Z,27.8398,-97.0727,0.0,18.8,11111222 
TCOON,ioos:station:TCOON:009:1,2007-12-14T17:00:00Z,27.8398,-97.0727,0.0,18.6,11111222 
TCOON,ioos:station:TCOON:009:1,2007-12-14T18:00:00Z,27.8398,-97.0727,0.0,18.6,11111222 
TCOON,ioos:station:TCOON:009:1,2007-12-14T19:00:00Z,27.8398,-97.0727,0.0,18.5,11111222 
TCOON,ioos:station:TCOON:009:1,2007-12-14T20:00:00Z,27.8398,-97.0727,0.0,18.6,11111222 
TCOON,ioos:station:TCOON:009:1,2007-12-14T21:00:00Z,27.8398,-97.0727,0.0,18.7,11111222 
TCOON,ioos:station:TCOON:009:1,2007-12-14T22:00:00Z,27.8398,-97.0727,0.0,18.9,11111222 
TCOON,ioos:station:TCOON:009:1,2007-12-14T23:00:00Z,27.8398,-97.0727,0.0,18.9,11111222 
TCOON,ioos:station:TCOON:009:1,2007-12-15T00:00:00Z,27.8398,-97.0727,0.0,18.9,11111222 
TCOON,ioos:station:TCOON:009:1,2007-12-15T01:00:00Z,27.8398,-97.0727,0.0,18.8,11111222 
TCOON,ioos:station:TCOON:009:1,2007-12-15T02:00:00Z,27.8398,-97.0727,0.0,18.8,11111222 
TCOON,ioos:station:TCOON:009:1,2007-12-15T03:00:00Z,27.8398,-97.0727,0.0,18.9,11111222 
TCOON,ioos:station:TCOON:009:1,2007-12-15T04:00:00Z,27.8398,-97.0727,0.0,18.9,11111222 
TCOON,ioos:station:TCOON:009:1,2007-12-15T05:00:00Z,27.8398,-97.0727,0.0,18.9,11111222 
TCOON,ioos:station:TCOON:009:1,2007-12-15T06:00:00Z,27.8398,-97.0727,0.0,18.9,11111222 
TCOON,ioos:station:TCOON:009:1,2007-12-15T07:00:00Z,27.8398,-97.0727,0.0,18.9,11111222 
TCOON,ioos:station:TCOON:009:1,2007-12-15T08:00:00Z,27.8398,-97.0727,0.0,19.0,11111222 
TCOON,ioos:station:TCOON:009:1,2007-12-15T09:00:00Z,27.8398,-97.0727,0.0,19.0,11111222 
TCOON,ioos:station:TCOON:009:1,2007-12-15T10:00:00Z,27.8398,-97.0727,0.0,19.0,11111222 
TCOON,ioos:station:TCOON:009:1,2007-12-15T11:00:00Z,27.8398,-97.0727,0.0,19.0,11111222 
TCOON,ioos:station:TCOON:009:1,2007-12-15T12:00:00Z,27.8398,-97.0727,0.0,19.0,11111222 
TCOON,ioos:station:TCOON:009:1,2007-12-15T13:00:00Z,27.8398,-97.0727,0.0,19.0,11111222 
TCOON,ioos:station:TCOON:009:1,2007-12-15T14:00:00Z,27.8398,-97.0727,0.0,19.0,11111222 
TCOON,ioos:station:TCOON:009:1,2007-12-15T15:00:00Z,27.8398,-97.0727,0.0,19.0,11111222 
TCOON,ioos:station:TCOON:009:1,2007-12-15T16:00:00Z,27.8398,-97.0727,0.0,19.1,11111222 
TCOON,ioos:station:TCOON:009:1,2007-12-15T19:00:00Z,27.8398,-97.0727,0.0,19.4,11111222 
TCOON,ioos:station:TCOON:009:1,2007-12-15T20:00:00Z,27.8398,-97.0727,0.0,19.4,11111222 
TCOON,ioos:station:TCOON:009:1,2007-12-15T21:00:00Z,27.8398,-97.0727,0.0,19.4,11111222 
TCOON,ioos:station:TCOON:009:1,2007-12-15T22:00:00Z,27.8398,-97.0727,0.0,19.4,11111222 
TCOON,ioos:station:TCOON:009:1,2007-12-15T23:00:00Z,27.8398,-97.0727,0.0,19.2,11111222 
TCOON,ioos:station:TCOON:009:1,2007-12-16T00:00:00Z,27.8398,-97.0727,0.0,19.2,11111222 
TCOON,ioos:station:TCOON:009:1,2007-12-16T01:00:00Z,27.8398,-97.0727,0.0,19.0,11111222 
TCOON,ioos:station:TCOON:009:1,2007-12-16T02:00:00Z,27.8398,-97.0727,0.0,18.9,11111222 
TCOON,ioos:station:TCOON:009:1,2007-12-16T03:00:00Z,27.8398,-97.0727,0.0,18.7,11111222 
TCOON,ioos:station:TCOON:009:1,2007-12-16T04:00:00Z,27.8398,-97.0727,0.0,18.5,11111222 
TCOON,ioos:station:TCOON:009:1,2007-12-16T05:00:00Z,27.8398,-97.0727,0.0,18.3,11111222 
TCOON,ioos:station:TCOON:009:1,2007-12-16T06:00:00Z,27.8398,-97.0727,0.0,18.1,11111222 
TCOON,ioos:station:TCOON:009:1,2007-12-16T07:00:00Z,27.8398,-97.0727,0.0,17.7,11111222 
TCOON,ioos:station:TCOON:009:1,2007-12-16T08:00:00Z,27.8398,-97.0727,0.0,17.5,11111222 
TCOON,ioos:station:TCOON:009:1,2007-12-16T09:00:00Z,27.8398,-97.0727,0.0,17.3,11111222 
TCOON,ioos:station:TCOON:009:1,2007-12-16T10:00:00Z,27.8398,-97.0727,0.0,17.0,11111222 
TCOON,ioos:station:TCOON:009:1,2007-12-16T11:00:00Z,27.8398,-97.0727,0.0,16.8,11111222 
TCOON,ioos:station:TCOON:009:1,2007-12-16T12:00:00Z,27.8398,-97.0727,0.0,16.6,11111222 
TCOON,ioos:station:TCOON:009:1,2007-12-16T13:00:00Z,27.8398,-97.0727,0.0,16.3,11111222 
TCOON,ioos:station:TCOON:009:1,2007-12-16T14:00:00Z,27.8398,-97.0727,0.0,16.2,11111222 
TCOON,ioos:station:TCOON:009:1,2007-12-16T15:00:00Z,27.8398,-97.0727,0.0,16.0,11111222 
TCOON,ioos:station:TCOON:009:1,2007-12-16T16:00:00Z,27.8398,-97.0727,0.0,15.9,11111222 
TCOON,ioos:station:TCOON:009:1,2007-12-16T17:00:00Z,27.8398,-97.0727,0.0,15.9,11111222 
TCOON,ioos:station:TCOON:009:1,2007-12-16T18:00:00Z,27.8398,-97.0727,0.0,16.1,11111222 
TCOON,ioos:station:TCOON:009:1,2007-12-16T19:00:00Z,27.8398,-97.0727,0.0,16.1,11111222 
TCOON,ioos:station:TCOON:009:1,2007-12-16T20:00:00Z,27.8398,-97.0727,0.0,16.2,11111222 
TCOON,ioos:station:TCOON:009:1,2007-12-16T21:00:00Z,27.8398,-97.0727,0.0,16.2,11111222 
TCOON,ioos:station:TCOON:009:1,2007-12-16T22:00:00Z,27.8398,-97.0727,0.0,16.3,11111222 
TCOON,ioos:station:TCOON:009:1,2007-12-16T23:00:00Z,27.8398,-97.0727,0.0,16.5,11111222 
TCOON,ioos:station:TCOON:009:1,2007-12-17T00:00:00Z,27.8398,-97.0727,0.0,16.5,11111222 
TCOON,ioos:station:TCOON:009:1,2007-12-17T01:00:00Z,27.8398,-97.0727,0.0,16.4,11111222 
TCOON,ioos:station:TCOON:009:1,2007-12-17T02:00:00Z,27.8398,-97.0727,0.0,16.0,11111222 
TCOON,ioos:station:TCOON:009:1,2007-12-17T03:00:00Z,27.8398,-97.0727,0.0,15.9,11111222 
TCOON,ioos:station:TCOON:009:1,2007-12-17T04:00:00Z,27.8398,-97.0727,0.0,15.8,11111222 
TCOON,ioos:station:TCOON:009:1,2007-12-17T05:00:00Z,27.8398,-97.0727,0.0,15.7,11111222 
TCOON,ioos:station:TCOON:009:1,2007-12-17T06:00:00Z,27.8398,-97.0727,0.0,15.8,11111222 
TCOON,ioos:station:TCOON:009:1,2007-12-17T07:00:00Z,27.8398,-97.0727,0.0,15.8,11111222 
TCOON,ioos:station:TCOON:009:1,2007-12-17T08:00:00Z,27.8398,-97.0727,0.0,15.7,11111222 
TCOON,ioos:station:TCOON:009:1,2007-12-17T09:00:00Z,27.8398,-97.0727,0.0,15.9,11111222 
TCOON,ioos:station:TCOON:009:1,2007-12-17T10:00:00Z,27.8398,-97.0727,0.0,15.9,11111222 
TCOON,ioos:station:TCOON:009:1,2007-12-17T11:00:00Z,27.8398,-97.0727,0.0,15.3,11111222 
TCOON,ioos:station:TCOON:009:1,2007-12-17T12:00:00Z,27.8398,-97.0727,0.0,15.3,11111222 
TCOON,ioos:station:TCOON:009:1,2007-12-17T13:00:00Z,27.8398,-97.0727,0.0,15.3,11111222 
TCOON,ioos:station:TCOON:009:1,2007-12-17T14:00:00Z,27.8398,-97.0727,0.0,15.2,11111222 
TCOON,ioos:station:TCOON:009:1,2007-12-17T15:00:00Z,27.8398,-97.0727,0.0,15.2,11111222 
TCOON,ioos:station:TCOON:009:1,2007-12-17T16:00:00Z,27.8398,-97.0727,0.0,15.4,11111222 
TCOON,ioos:station:TCOON:009:1,2007-12-17T17:00:00Z,27.8398,-97.0727,0.0,15.6,11111222 
TCOON,ioos:station:TCOON:009:1,2007-12-17T18:00:00Z,27.8398,-97.0727,0.0,15.8,11111222 
TCOON,ioos:station:TCOON:009:1,2007-12-17T19:00:00Z,27.8398,-97.0727,0.0,16.0,11111222 
TCOON,ioos:station:TCOON:009:1,2007-12-17T20:00:00Z,27.8398,-97.0727,0.0,16.1,11111222 
TCOON,ioos:station:TCOON:009:1,2007-12-17T21:00:00Z,27.8398,-97.0727,0.0,16.3,11111222 
TCOON,ioos:station:TCOON:009:1,2007-12-17T22:00:00Z,27.8398,-97.0727,0.0,16.4,11111222 
TCOON,ioos:station:TCOON:009:1,2007-12-17T23:00:00Z,27.8398,-97.0727,0.0,16.5,11111222 
TCOON,ioos:station:TCOON:009:1,2007-12-18T00:00:00Z,27.8398,-97.0727,0.0,16.8,11111222 
TCOON,ioos:station:TCOON:009:1,2007-12-18T01:00:00Z,27.8398,-97.0727,0.0,17.0,11111222 
TCOON,ioos:station:TCOON:009:1,2007-12-18T02:00:00Z,27.8398,-97.0727,0.0,17.2,11111222 
TCOON,ioos:station:TCOON:009:1,2007-12-18T03:00:00Z,27.8398,-97.0727,0.0,17.3,11111222 
TCOON,ioos:station:TCOON:009:1,2007-12-18T04:00:00Z,27.8398,-97.0727,0.0,17.3,11111222 
TCOON,ioos:station:TCOON:009:1,2007-12-18T05:00:00Z,27.8398,-97.0727,0.0,17.4,11111222 
TCOON,ioos:station:TCOON:009:1,2007-12-18T06:00:00Z,27.8398,-97.0727,0.0,17.5,11111222 
TCOON,ioos:station:TCOON:009:1,2007-12-18T07:00:00Z,27.8398,-97.0727,0.0,17.5,11111222 
TCOON,ioos:station:TCOON:009:1,2007-12-18T08:00:00Z,27.8398,-97.0727,0.0,17.5,11111222 
TCOON,ioos:station:TCOON:009:1,2007-12-18T09:00:00Z,27.8398,-97.0727,0.0,17.5,11111222 
TCOON,ioos:station:TCOON:009:1,2007-12-18T10:00:00Z,27.8398,-97.0727,0.0,17.5,11111222 
TCOON,ioos:station:TCOON:009:1,2007-12-18T11:00:00Z,27.8398,-97.0727,0.0,17.4,11111222 
TCOON,ioos:station:TCOON:009:1,2007-12-18T12:00:00Z,27.8398,-97.0727,0.0,17.1,11111222 
TCOON,ioos:station:TCOON:009:1,2007-12-18T13:00:00Z,27.8398,-97.0727,0.0,16.9,11111222 
TCOON,ioos:station:TCOON:009:1,2007-12-18T14:00:00Z,27.8398,-97.0727,0.0,16.8,11111222 